Regional Weather Roundup
Issued by NWS

Home | Current Version | Previous Version | Graphics & Text | Print | Product List | Glossary On
Versions: 1 2 3 4 5 6 7 8 9 10 11 12 13 14 15 16 17 18 19 20 21 22 23 24 25 26 27 28 29 30 31 32 33 34 35 36 37 38 39 40 41 42 43 44 45 46 47 48 49 50
000
ASUS44 KMEG 011700
RWRTN
TENNESSEE HOURLY STATE WEATHER ROUNDUP
NATIONAL WEATHER SERVICE MEMPHIS TN
1200 PM CDT WED JUL 01 2015

TNZ002-004-019-021-049-052-054-088>092-011800-
WEST TENNESSEE

CITY           SKY/WX    TMP DP  RH WIND       PRES   REMARKS
MEMPHIS INTL   CLOUDY    82  73  74 VRB7      30.03S
NWS MEMPHIS      N/A     81 N/A N/A MISG        N/A
JACKSON        CLOUDY    82  70  66 N9        30.02R
DYERSBURG        N/A    N/A N/A N/A MISG        N/A
PARIS          MOSUNNY   66  66 100 CALM      30.01F
LEXINGTON      PTSUNNY   72  70  94 W6        30.02R
$$

TNZ008-025-027-028-033-062-065-066-011800-
NORTH MIDDLE TENNESSEE

CITY           SKY/WX    TMP DP  RH WIND       PRES   REMARKS
NASHVILLE      CLOUDY    77  75  93 SW6       30.01R
CLARKSVILLE    LGT RAIN  75  72  90 W10       30.01R
COOKEVILLE     PTSUNNY   79  73  83 SW3       30.03R
CROSSVILLE     CLOUDY    74  67  78 W7        30.07R
$$

TNZ061-075-076-078-094-096-097-011800-
SOUTH MIDDLE TENNESSEE

CITY           SKY/WX    TMP DP  RH WIND       PRES   REMARKS
FAYETTEVILLE   CLOUDY    73  72  94 SW7       30.05S
TULLAHOMA      MOSUNNY   73  70  88 S6        30.06R
WINCHESTER     MOSUNNY   75  72  88 CALM      30.05S
SHELBYVILLE    PTSUNNY   79  73  83 SW5       30.04R
$$

TNZ017-018-042-046-047-011800-
NORTHEAST TENNESSEE

CITY           SKY/WX    TMP DP  RH WIND       PRES   REMARKS
TRI CITIES     PTSUNNY   78  65  63 SW9       30.02F
ELIZABETHTON   PTSUNNY   75  64  69 VRB6      30.03S
$$

TNZ012-013-036-069-073-074-011800-
CENTRAL EAST TENNESSEE

CITY           SKY/WX    TMP DP  RH WIND       PRES   REMARKS
KNOXVILLE      CLOUDY    79  70  74 S9        30.01F
OAK RIDGE      CLOUDY    77  70  79 S7        30.02S
GATLINBURG     SUNNY     79  66  65 W6        30.01F
$$

TNZ083-085-099-011800-
SOUTHEAST TENNESSEE

CITY           SKY/WX    TMP DP  RH WIND       PRES   REMARKS
CHATTANOOGA    CLOUDY    82  69  64 S10       30.04R
$$

SKY/WX REPORTED AS FAIR MEANS FEW OR NO CLOUDS BELOW
12 THOUSAND FEET.




USA.gov is the U.S. government's official web portal to all federal, state and local government web resources and services.